星链-32128 (STARLINK-32128)

导读 | 豆包AI

STARLINK-32128是美国SpaceX公司于2024年7月27日发射的星链(Starlink)星座卫星,运行于近地轨道。作为星链第二代组网卫星,它搭载星间激光通信终端,可实现高速太空链路互联,助力构建全球覆盖的低轨卫星互联网,为偏远地区、海洋和极地提供高速低延迟宽带服务,支撑手机直连等高带宽应用场景,是星链“光联网”星座部署的组成部分。

基本信息
目录编号:
60272
目录名称:
STARLINK-32128
国际标识:
2024-131T
轨道中心:
EARTH
卫星名称:
星链-32128 (STARLINK-32128)
卫星全名:
星链-32128 (STARLINK-32128)
卫星状态:
在轨 (已飞行643 天)
发射日期:
2024-07-27 UTC
国别 :
美国 (US)
星等 :
--
轨道信息
数据来源 国际轨道数据 AOE轨道数据
星历时间 2026-04-30T23:07:24+0800
12小时前
查看轨道信息
2026-04-30T07:00:00+0800
1天前
查看轨道信息
半长轴 6853.356km 6853.361km
偏心率 0.0001101 0.0001282
轨道倾角 53.160° 53.159°
近地点辐角 79.635° 86.909°
升交点赤经 170.980° 174.101°
平近点角 280.477° 170.357°
近地点 474.464km 474.345km
远地点 475.974km 476.103km
周期 94.105分钟 94.106分钟
每日圈数 15.301987 15.301972
详细信息
卫星平台:
Starlink v2.0 mini
运营商:
太空探索技术公司
运营商所在国:
美国
制造商(研发单位):
太空探索技术公司
制造商所在国:
美国
使用方式:
暂无
卫星简介
星链(Starlink)计划是由太空探索技术公司(SpaceX)提出的一个巨型低轨卫星互联网星座项目,计划在2019年至2024年间在太空搭建由约1.2万颗卫星组成的“星链”网络,其中1584颗将部署在地球上空550千米处的近地轨道,并从2020年开始工作。该卫星仍在工作。
2D轨道图
3D轨道图
轨道高度分析图
轨道倾角分析图
轨道综合分析图
查看轨道综合分析图